Location: Caltech
(34.1382°N, 118.1253°W)
Time: 11:34:20
(UTC-07:00)

ARGOS - Visible Passes

Search period start: 17 April 2014 00:00
Search period end: 27 April 2014 00:00
Orbit: 821 x 835 km, 98.8° (Epoch: 17 April)

Date Brightness Start Highest point End Pass type
(mag) Time Alt. Az. Time Alt. Az. Time Alt. Az.
17 Apr 4.2 22:25:20 41° N 22:25:20 41° N 22:28:48 10° N visible
18 Apr 4.0 22:06:37 40° NNE 22:06:37 40° NNE 22:10:18 10° N visible
18 Apr 5.9 23:48:08 12° WNW 23:48:08 12° WNW 23:48:47 10° NW visible
19 Apr 4.2 21:47:54 32° NE 21:47:54 32° NE 21:51:38 10° N visible
19 Apr 5.5 23:29:25 18° WNW 23:29:25 18° WNW 23:31:21 10° NW visible
20 Apr 4.5 21:29:11 23° ENE 21:29:11 23° ENE 21:32:46 10° NNE visible
20 Apr 5.0 23:10:43 26° NW 23:10:43 26° NW 23:13:29 10° NNW visible
21 Apr 4.9 21:10:29 16° ENE 21:10:29 16° ENE 21:13:34 10° NNE visible
21 Apr 4.5 22:52:00 37° NW 22:52:00 37° NW 22:55:23 10° NNW visible
22 Apr 5.2 20:51:46 10° ENE 20:52:14 11° ENE 20:53:15 10° NE visible
22 Apr 4.0 22:33:17 47° NNW 22:33:17 47° NNW 22:37:06 10° NNW visible
23 Apr 3.8 22:14:34 49° NNE 22:14:34 49° NNE 22:18:39 10° N visible
23 Apr 5.9 23:56:06 11° WNW 23:56:06 11° WNW 23:56:20 10° WNW visible
24 Apr 3.9 21:55:52 39° NE 21:55:52 39° NE 22:00:04 10° N visible
24 Apr 5.5 23:37:23 17° WNW 23:37:23 17° WNW 23:39:17 10° NW visible
25 Apr 4.3 21:37:09 28° ENE 21:37:09 28° ENE 21:41:18 10° N visible
25 Apr 5.0 23:18:40 25° WNW 23:18:40 25° WNW 23:21:35 10° NW visible
26 Apr 4.7 21:18:27 19° ENE 21:18:33 19° ENE 21:22:17 10° NNE visible
26 Apr 4.5 22:59:58 36° NW 22:59:58 36° NW 23:03:34 10° NNW visible
